Location: Gebenbach
(49.5378°N, 11.8735°E)
Time: 01:58:45
(UTC+00:00)

SL-4 R/B - Pass Details

Date: 29 October 2020
Orbit: 427 x 665 km, 51.6° (Epoch: 27 November)

Event Time Altitude Azimuth Distance (km) Brightness Sun altitude
Rises 17:29:22 0° 286° (WNW) 2,437 6.7 -15.8°
Reaches altitude 10° 17:31:26 10° 288° (WNW) 1,588 5.5 -16.1°
Maximum altitude 17:35:00 83° 16° (NNE) 481 1.6 -16.7°
Enters shadow 17:36:15 40° 100° (E) 720 2.1 -16.9°
